Simultaneous Nadir Overpasses (SNOs) Predictions

Prediction of SNOs between GOES-16 and TERRA Satellite Orbit:

Table of predicted SNOs for the next 14.0 days since TLE Epoch: 10/3/2020
Index Date Time (GOES-16) GOES-16 Lat,Lon TERRA Lat,Lon Distance(km) Time Diff (sec)
1 10/04/2020 03:35:48 0.03, -75.21 -0.12, -76.01 90.76 80
2 10/06/2020 03:20:56 0.03, -75.24 0.47, -73.05 248.53 80
3 10/06/2020 15:44:52 -0.02, -75.27 0.59, -78.21 334.63 80
4 10/08/2020 15:32:40 -0.02, -75.30 -0.01, -75.25 5.54 80
5 10/10/2020 15:17:49 -0.02, -75.33 -0.67, -72.30 344.78 80
6 10/11/2020 03:41:53 0.02, -75.32 -0.45, -77.49 246.69 80
7 10/13/2020 03:27:02 0.02, -75.36 0.22, -74.54 93.69 80
8 10/13/2020 15:50:56 -0.01, -75.39 0.91, -79.69 489.36 80
9 10/15/2020 03:14:50 0.02, -75.40 0.82, -71.58 434.57 80
10 10/15/2020 15:38:46 -0.02, -75.43 0.24, -76.74 148.29 80
